CET,Max TemperatureF,Mean TemperatureF,Min TemperatureF,Max Dew PointF,MeanDew PointF,Min DewpointF,Max Humidity, Mean Humidity, Min Humidity, Max Sea Level PressureIn, Mean Sea Level PressureIn, Min Sea Level PressureIn, Max VisibilityMiles, Mean VisibilityMiles, Min VisibilityMiles, Max Wind SpeedMPH, Mean Wind SpeedMPH, Max Gust SpeedMPH,PrecipitationIn, CloudCover, Events, WindDirDegrees
2012-10-1,71,62,52,56,50,41,82,67,55,30.15,30.05,30.01,19,7,6,15,9,,0.01,5,Rain,99
2012-10-2,63,58,53,52,50,48,88,75,54,30.09,30.07,30.06,16,7,6,10,5,,0.00,6,,298
2012-10-3,72,58,45,48,45,41,94,65,31,30.08,30.04,30.01,19,12,6,9,5,,0.00,,,273
2012-10-4,70,58,45,55,48,40,87,70,49,30.06,29.96,29.83,19,8,2,23,6,39,0.12,1,Rain-Thunderstorm,211
2012-10-5,65,54,42,50,44,39,87,69,38,30.15,30.07,29.98,19,13,6,14,8,,0.00,1,,196
2012-10-6,78,62,46,54,48,43,94,62,27,30.06,29.98,29.89,19,10,6,17,6,,0.00,1,Fog,190
2012-10-7,57,50,42,55,48,41,94,78,42,30.09,29.92,29.80,19,7,2,28,8,31,0.63,6,Rain,256
2012-10-8,56,47,37,41,37,33,93,73,30,30.19,30.11,30.04,19,8,6,14,5,,0.00,4,,318
2012-10-9,56,46,35,46,39,32,93,79,62,30.02,29.88,29.80,19,8,6,9,4,,0.00,3,,255
2012-10-10,54,44,34,39,35,32,93,68,42,30.00,29.95,29.92,19,7,6,8,5,,0.00,3,,312
2012-10-11,55,44,33,37,35,30,93,72,40,30.06,29.98,29.95,19,8,6,9,3,,0.00,3,Fog,327
2012-10-12,51,45,39,43,38,34,87,74,60,29.98,29.93,29.89,16,7,6,16,9,,0.02,7,Rain,99
2012-10-13,59,52,44,45,42,36,100,77,34,30.05,29.97,29.86,7,5,0,9,3,,0.00,3,Fog-Rain,175
2012-10-14,57,50,44,48,45,39,87,81,72,29.83,29.75,29.62,19,6,5,16,7,,0.00,6,,107
2012-10-15,66,57,48,54,48,41,88,74,55,29.89,29.69,29.59,12,6,6,18,11,,0.02,6,Rain,180
2012-10-16,47,46,44,45,42,39,93,86,64,29.95,29.87,29.83,12,6,3,15,9,,0.43,7,Rain,306
2012-10-17,57,46,36,46,41,36,93,81,52,30.15,30.08,29.95,16,6,3,9,5,,0.00,3,,112
2012-10-18,61,52,42,52,46,41,93,77,61,30.16,30.11,30.06,12,6,5,17,9,,0.00,4,,101
2012-10-19,65,54,43,50,45,39,87,71,49,30.17,30.11,30.09,19,12,6,10,6,,0.00,1,,84
2012-10-20,66,54,41,52,46,39,94,81,56,30.14,30.10,30.06,10,4,2,7,3,,0.00,,Fog,319
2012-10-21,62,52,43,55,48,41,100,92,72,30.17,30.13,30.09,4,1,0,10,3,,0.00,6,Fog,319
2012-10-22,63,56,46,51,48,45,100,87,68,30.24,30.19,30.15,6,2,0,10,5,,0.00,7,Fog,58
2012-10-23,52,49,46,46,45,43,100,88,76,30.28,30.25,30.21,6,3,0,16,9,,0.00,8,Fog,52
2012-10-24,57,52,46,46,45,42,87,80,63,30.22,30.11,30.06,6,4,3,9,5,,0.00,6,,239
2012-10-25,50,48,46,46,43,41,93,83,72,30.05,29.93,29.83,9,5,2,12,5,,0.00,7,,236
2012-10-26,48,44,39,43,35,28,93,70,42,29.89,29.79,29.56,19,6,4,20,9,,0.00,4,,11
2012-10-27,40,36,32,37,35,28,93,88,75,29.56,29.34,29.18,9,5,2,21,16,,0.31,8,Rain-Snow,26
2012-10-28,40,35,30,28,28,27,87,74,49,29.96,29.75,29.53,19,6,1,20,13,,0.00,4,Snow,342
2012-10-29,37,34,32,28,26,21,87,70,52,29.96,29.90,29.86,12,6,2,20,13,,0.00,5,Snow,357
2012-10-30,41,34,26,34,29,25,93,79,55,29.91,29.79,29.74,19,6,2,10,4,,0.00,6,Rain,196
2012-10-31,46,40,35,36,33,32,87,76,57,29.87,29.79,29.71,16,7,6,22,8,31,0.00,5,Rain,134